Regional Weather Roundup
Issued by NWS

Home | Current Version | Previous Version | Text Only | Print | Product List | Glossary Off
Versions: 1 2 3 4 5 6 7 8 9 10 11 12 13 14 15 16 17 18 19 20 21 22 23 24 25 26 27 28 29 30 31 32 33 34 35 36 37 38 39 40 41 42 43 44 45 46 47 48 49 50

000
ASUS43 KIND 291700
RWRIN

WEATHER ROUNDUP FOR INDIANA
NATIONAL WEATHER SERVICE INDIANAPOLIS IN
1200 PM EST THU JAN 29 2015

NOTE: "FAIR" INDICATES FEW OR NO CLOUDS BELOW 12,000 FEET WITH NO
SIGNIFICANT WEATHER AND/OR OBSTRUCTIONS TO VISIBILITY.

* - STATION DOES NOT REPORT WEATHER SUCH AS PRECIPITATION OR FOG.

+ - STATION NOT QUALITY CONTROLLED BY THE NATIONAL WEATHER SERVICE.
    USE DATA WITH CAUTION...ESPECIALLY DEWPOINT AND RELATIVE
    HUMIDITY OBSERVATIONS.

INZ001>003-010>013-019-020-291800-
NORTHWEST INDIANA

CITY           SKY/WX    TMP DP  RH WIND       PRES   REMARKS
GARY /AIRPORT/ CLOUDY    36  27  69 NW14G29   29.89R
VALPARAISO     NOT AVBL

$$

LMZ046-743>745-291800-
SOUTHERN LAKE MICHIGAN

STATION/POSITION TIME  TEMP WIND        PRES
                       AIR  DIR/SP/G
                 (UTC) (F)  (DEG/KT/KT) (MB)
MICHIGAN CITY    1600   34  320/ 26/ 30   N/A

$$

INZ004-005-014>016-021>024-291800-
NORTH CENTRAL INDIANA

CITY           SKY/WX    TMP DP  RH WIND       PRES   REMARKS
ELKHART        CLOUDY    36  28  75 NW12G17   29.78R
GOSHEN         CLOUDY    36  30  79 NW17G25   29.76R
PERU/GRISSOM   CLOUDY    37  33  85 NW17      29.79R
SOUTH BEND     CLOUDY    35  30  82 NW20G26   29.80R WCI  24

$$

INZ006>009-017-018-025>027-291800-
NORTHEAST INDIANA

CITY           SKY/WX    TMP DP  RH WIND       PRES   REMARKS
FORT WAYNE     CLOUDY    39  32  76 W15       29.74F

$$

INZ028-029-035-036-043>045-051>053-291800-
WEST CENTRAL INDIANA

CITY           SKY/WX    TMP DP  RH WIND       PRES   REMARKS
GREENCASTLE +  CLOUDY    36  32  87 W13G21    29.91R HAZE
LAFAYETTE      CLOUDY    35  31  85 W16G23    29.88R FOG     WCI  25
TERRE HAUTE    CLOUDY    36  32  85 W15G26    29.97R FOG

$$

INZ030>032-037>040-046>048-054>057-064-065-291800-
CENTRAL INDIANA

CITY           SKY/WX    TMP DP  RH WIND       PRES   REMARKS
COLUMBUS       CLOUDY    45  34  65 W24G32    29.86R
INDIANAPOLIS   CLOUDY    36  32  85 W17       29.87R
-EAGLE CREEK   CLOUDY    37  33  85 W18G26    29.86R
KOKOMO *+      CLOUDY    36  30  80 W16       29.80R
MT COMFORT *+  CLOUDY    39  28  65 W17G30    29.84R
SHELBYVILLE    CLOUDY    41  34  76 W29G36    29.84R

$$

INZ033-034-041-042-049-050-058-059-291800-
EAST CENTRAL INDIANA

CITY           SKY/WX    TMP DP  RH WIND       PRES   REMARKS
MUNCIE         CLOUDY    40  35  83 W16G24    29.78R HAZE

$$

INZ060-061-067>069-081>083-085>088-291800-
SOUTHWEST INDIANA

CITY           SKY/WX    TMP DP  RH WIND       PRES   REMARKS
EVANSVILLE     CLOUDY    46  36  68 NW16      30.04R
HUNTINGBURG *+ CLOUDY    45  36  70 NW21G29   30.02R

$$

INZ062-063-066-070>080-084-089>092-291800-
SOUTH CENTRAL AND SOUTHEAST INDIANA

CITY           SKY/WX    TMP DP  RH WIND       PRES   REMARKS
BLOOMINGTON    CLOUDY    38  34  85 W15       29.93R FOG

$$



USA.gov is the U.S. government's official web portal to all federal, state and local government web resources and services.